sat.trackr.live / text

‹ back to catalog

ONEWEB-0288

NORAD 49078 · 2021-075D

PAYLOAD ACTIVE UNKNOWN

§ Identity

Operator
Country
UK
Launch date
2021-08-21
Launch site
TYMSC
Launch vehicle
Mass (kg)
RCS (m²)

Purposes: comms

External: N2YO · Heavens-Above · Gunter

§ Orbital elements

Epoch: 2026-05-25T01:42:45.667296Z

Period
109.72 min
Inclination
87.8959°
Eccentricity
0.0001846
Mean motion
13.12441666 rev/d
Perigee alt
1,212.3 km
Apogee alt
1,215.1 km
Semi-major
7,591.9 km
B*
-1.0546e-3
RAAN
355.2522°
Arg perigee
93.6473°
Mean anomaly
266.4866°
Rev number
23,215

§ Raw data

ONEWEB-02881 49078U 21075D   26145.07136189 -.00000367  00000+0 -10546-2 0  99912 49078  87.8959 355.2522 0001846  93.6473 266.4866 13.12441666232156

JSON: /api/v1/satellites/49078 · /tle

For live sub-satellite position, see the globe view (requires WebGL).

§ Visibility from observer

Set your observer location to see the next 7 days of passes ≥ 10°. The values pass through the URL so the page stays shareable.

No JS? Fill the form by hand. The geolocation button needs JavaScript.